This is the latest recevied weather packets stored in our database for station/object KD8BMB. If no packets are shown the sender has not sent any weather packets the latest 10 day(s).
| Time | Temp. | Humidity | Pressure | Rain* | Wind** | Luminosity | Snow |
|---|---|---|---|---|---|---|---|
| 1778154130 | 2.78° C | 96% | 1012.9 hPa | 0 mm | - | 67 W/m² | - |
| 1778153827 | 2.78° C | 97% | 1012.9 hPa | 0 mm | - | 58 W/m² | - |
| 1778153523 | 2.22° C | 98% | 1012.7 hPa | 0 mm | - | 49 W/m² | - |
| 1778153221 | 2.22° C | 98% | 1013 hPa | 0 mm | - | 43 W/m² | - |
| 1778152918 | 1.67° C | 98% | 1012.6 hPa | 0 mm | - | 35 W/m² | - |
| 1778152615 | 1.67° C | 99% | 1012.6 hPa | 0 mm | - | 32 W/m² | - |
| 1778152312 | 1.67° C | 99% | 1012.6 hPa | 0 mm | - | 27 W/m² | - |
| 1778152008 | 1.11° C | 99% | 1012.6 hPa | 0 mm | - | 23 W/m² | - |
| 1778151704 | 1.11° C | 99% | 1012.4 hPa | 0 mm | - | 20 W/m² | - |
| 1778151401 | 1.11° C | 99% | 1012.3 hPa | 0 mm | - | 18 W/m² | - |
| 1778151097 | 0.56° C | 99% | 1012.4 hPa | 0 mm | - | 16 W/m² | - |
| 1778150795 | 0.56° C | 98% | 1012.4 hPa | 0 mm | - | 11 W/m² | - |
| 1778150491 | 0.56° C | 98% | 1012.3 hPa | 0 mm | - | 8 W/m² | - |
| 1778150187 | 0.56° C | 98% | 1012.5 hPa | 0 mm | - | 6 W/m² | - |
| 1778149884 | 1.11° C | 98% | 1012.6 hPa | 0 mm | - | 4 W/m² | - |
| 1778149581 | 1.11° C | 98% | 1012.3 hPa | 0 mm | - | 2 W/m² | - |
| 1778149277 | 1.11° C | 97% | 1012.4 hPa | 0 mm | - | 1 W/m² | - |
| 1778148973 | 1.11° C | 97% | 1012.4 hPa | 0 mm | - | 0 W/m² | - |
| 1778148669 | 1.11° C | 97% | 1012.3 hPa | 0 mm | - | 0 W/m² | - |
| 1778148366 | 1.11° C | 97% | 1012.3 hPa | 0 mm | - | 0 W/m² | - |
| 1778148064 | 1.67° C | 96% | 1012.3 hPa | 0 mm | - | 0 W/m² | - |
| 1778147762 | 1.11° C | 96% | 1012.1 hPa | 0 mm | - | 0 W/m² | - |
| 1778147459 | 1.11° C | 96% | 1012.4 hPa | 0 mm | - | 0 W/m² | - |
| 1778147154 | 1.67° C | 95% | 1012.3 hPa | 0 mm | - | 0 W/m² | - |
| 1778146852 | 1.67° C | 95% | 1012.3 hPa | 0 mm | - | 0 W/m² | - |
* Rain latest hour (hover to see other rain measurements)
** Current wind speed in m/s (hover to see current wind gust speed)